Time,TemperatureF,DewpointF,PressureIn,WindDirection,WindDirectionDegrees,WindSpeedMPH,WindSpeedGustMPH,Humidity,HourlyPrecipIn,Conditions,Clouds,dailyrainin,SoftwareType,DateUTC
2013-02-08 00:00:00,14.0,8.0,-100.00,ESE,119,1.0,1.0,78,-99.99,,,-99.99,,2013-02-08 08:00:00,
2013-02-08 00:52:00,14.0,8.0,-100.00,ESE,119,1.0,1.0,78,-99.99,,,-99.99,,2013-02-08 08:52:00,
2013-02-08 01:00:00,15.0,7.0,-100.00,NE,39,1.0,1.0,71,-99.99,,,-99.99,,2013-02-08 09:00:00,
2013-02-08 02:00:00,15.0,6.0,-100.00,East,90,1.0,1.0,67,-99.99,,,-99.99,,2013-02-08 10:00:00,
2013-02-08 03:00:00,19.0,-4.0,-100.00,South,189,1.0,1.0,36,-99.99,,,-99.99,,2013-02-08 11:00:00,
2013-02-08 04:00:00,19.0,-4.0,-100.00,North,11,1.0,1.0,35,-99.99,,,-99.99,,2013-02-08 12:00:00,
2013-02-08 05:00:00,19.0,-12.0,-100.00,WSW,242,2.0,7.0,24,-99.99,,,-99.99,,2013-02-08 13:00:00,
2013-02-08 06:00:00,19.0,-6.0,-100.00,SW,215,3.0,8.0,32,-99.99,,,-99.99,,2013-02-08 14:00:00,
2013-02-08 06:52:00,19.0,-6.0,-100.00,SW,215,3.0,8.0,32,-99.99,,,-99.99,,2013-02-08 14:52:00,
2013-02-08 07:00:00,19.0,-7.0,-100.00,SW,235,3.0,6.0,31,-99.99,,,-99.99,,2013-02-08 15:00:00,
2013-02-08 08:00:00,20.0,-11.0,-100.00,NNW,331,3.0,7.0,24,-99.99,,,-99.99,,2013-02-08 16:00:00,
2013-02-08 09:00:00,23.0,-12.0,-100.00,East,93,5.0,8.0,20,-99.99,,,-99.99,,2013-02-08 17:00:00,
2013-02-08 10:00:00,25.0,-16.0,-100.00,NE,42,3.0,7.0,15,-99.99,,,-99.99,,2013-02-08 18:00:00,
2013-02-08 12:00:00,27.0,16.0,-100.00,North,7,3.0,6.0,64,-99.99,,,-99.99,,2013-02-08 20:00:00,
2013-02-08 13:00:00,26.0,14.0,-100.00,SSW,204,1.0,1.0,60,-99.99,,,-99.99,,2013-02-08 21:00:00,
2013-02-08 13:52:00,26.0,14.0,-100.00,SSW,204,1.0,1.0,60,-99.99,,,-99.99,,2013-02-08 21:52:00,
2013-02-08 15:00:00,24.0,12.0,-100.00,SSW,202,1.0,6.0,60,-99.99,,,-99.99,,2013-02-08 23:00:00,
2013-02-08 16:00:00,24.0,15.0,-100.00,East,92,1.0,1.0,69,-99.99,,,-99.99,,2013-02-09 00:00:00,
2013-02-08 17:00:00,21.0,10.0,-100.00,SW,215,2.0,20.0,61,-99.99,,,-99.99,,2013-02-09 01:00:00,
2013-02-08 18:00:00,23.0,-8.0,-100.00,ENE,68,16.0,28.0,25,-99.99,,,-99.99,,2013-02-09 02:00:00,
2013-02-08 19:00:00,22.0,-5.0,-100.00,ENE,64,9.0,24.0,29,-99.99,,,-99.99,,2013-02-09 03:00:00,
2013-02-08 20:00:00,22.0,-6.0,-100.00,NE,42,6.0,20.0,28,-99.99,,,-99.99,,2013-02-09 04:00:00,
2013-02-08 21:00:00,22.0,-5.0,-100.00,ENE,62,3.0,13.0,29,-99.99,,,-99.99,,2013-02-09 05:00:00,
2013-02-08 22:00:00,19.0,2.0,-100.00,North,3,3.0,14.0,46,-99.99,,,-99.99,,2013-02-09 06:00:00,
2013-02-08 23:00:00,21.0,1.0,-100.00,NNW,337,3.0,12.0,41,-99.99,,,-99.99,,2013-02-09 07:00:00,